AO-07 1 07530U 74089B 23313.59298644 -.00000011 00000-0 22022-3 0 9996 2 07530 101.9635 301.3287 0012276 144.5040 326.2472 12.53669064241399 UO-11 1 14781U 84021B 23313.51532123 .00002743 00000-0 32292-3 0 9997 2 14781 97.6766 285.0155 0009863 84.8621 275.3720 14.85571836115714 AO-16 1 20439U 90005D 23313.60824560 .00000439 00000-0 17650-3 0 9993 2 20439 98.8948 307.6592 0011512 133.9305 341.3595 14.33207908765737 LO-19 1 20442U 90005G 23313.51197096 .00000455 00000-0 18159-3 0 9997 2 20442 98.8626 293.2666 0012716 110.6711 249.5837 14.33363072766167 AO-27 1 22825U 93061C 23313.57060454 .00000292 00000-0 13002-3 0 9993 2 22825 98.8234 358.6811 0008517 11.2357 348.9014 14.30376622571070 IO-26 1 22826U 93061D 23313.67686664 .00000335 00000-0 14550-3 0 9999 2 22826 98.8180 358.6503 0008768 356.0179 4.0932 14.30745720571617 FO-29 1 24278U 96046B 23313.48429562 .00000071 00000-0 10661-3 0 9995 2 24278 98.5515 272.3661 0350840 40.2249 322.4297 13.53160650344589 NOAA-15 1 25338U 98030A 23313.78287949 .00000370 00000-0 17195-3 0 9993 2 25338 98.5936 340.2740 0009366 246.1067 113.9133 14.26430300326019 GO-32 1 25397U 98043D 23313.46631478 .00000280 00000-0 14202-3 0 9993 2 25397 98.8900 272.3098 0002359 81.2299 278.9146 14.23939793316000 ISS 1 25544U 98067A 23313.85050058 .00017435 00000-0 30921-3 0 9991 2 25544 51.6433 327.0206 0001112 99.5267 318.6889 15.50327268424380 NO-44 1 26931U 01043C 23313.57873657 .00000415 00000-0 18876-3 0 9992 2 26931 67.0501 181.3833 0006224 256.8112 103.2295 14.31037260154388 SO-50 1 27607U 02058C 23313.07394945 .00002212 00000-0 31910-3 0 9994 2 27607 64.5551 180.5728 0052611 192.6332 167.3457 14.77885538123636 CO-55 1 27844U 03031E 23313.60248168 .00000784 00000-0 36771-3 0 9995 2 27844 98.6797 318.7601 0010810 67.2406 292.9913 14.22953433 56411 CO-57 1 27848U 03031J 23312.96126585 .00000709 00000-0 33754-3 0 9990 2 27848 98.6834 318.4847 0010777 82.6706 277.5696 14.22439326 56082 RS-22 1 27939U 03042A 23313.80526222 .00002223 00000-0 38793-3 0 9990 2 27939 98.2625 102.0921 0013036 40.9400 95.4891 14.68953322 75910 NOAA-18 1 28654U 05018A 23313.79513540 .00000413 00000-0 24514-3 0 9992 2 28654 98.8980 27.3987 0013628 331.0899 28.9517 14.13051451952135 CO-58 1 28895U 05043F 23313.31841679 .00003000 00000-0 55083-3 0 9992 2 28895 98.1731 84.4997 0015636 338.3808 21.6733 14.66368641962305 CO-65 1 32785U 08021C 23313.50462316 .00007006 00000-0 66481-3 0 9996 2 32785 97.7251 276.6250 0011325 350.4626 9.6377 14.93797361842505 AAUSAT2 1 32788U 08021F 23313.43211453 .00019931 00000-0 12975-2 0 9993 2 32788 97.5755 290.0969 0005854 197.6771 162.4255 15.07969884844966 DO-64 1 32789U 08021G 23313.80362555 .01807556 20443-2 37625-2 0 9998 2 32789 97.2697 337.5130 0002737 190.8592 169.2628 15.99598545850070 CO-66 1 32791U 08021J 23313.45056574 .00011307 00000-0 93460-3 0 9998 2 32791 97.6724 281.9836 0009302 284.6870 75.3322 14.99070542843407 RS-30 1 32953U 08025A 23313.79539682 .00000024 00000-0 10207-3 0 9997 2 32953 82.5053 226.5225 0018326 226.1128 133.8439 12.43131849701749 PRISM 1 33493U 09002B 23313.54988027 .00016291 00000-0 99328-3 0 9991 2 33493 98.2376 338.5992 0013149 279.0608 80.9131 15.10376550805657 NOAA-19 1 33591U 09005A 23313.78737919 .00000370 00000-0 22342-3 0 9994 2 33591 99.0819 1.9201 0013776 189.4674 170.6239 14.12861950760508 SRMSAT 1 37841U 11058D 23313.56344024 .00000633 00000-0 20209-3 0 9996 2 37841 19.9728 51.0117 0011709 188.9228 284.1899 14.10979879623368 HRBE 1 37855U 11061F 23313.35662785 .00051400 00000-0 12211-2 0 9990 2 37855 101.7023 358.1896 0097703 312.5295 46.7712 15.36605892658772 RS-40 1 38735U 12041C 23313.56554716 .00000041 00000-0 22962-3 0 9994 2 38735 82.4728 307.4422 0017061 343.9007 16.1528 12.42597716511770 ZACUBE-1 1 39417U 13066B 23313.44798529 .00005796 00000-0 64533-3 0 9991 2 39417 97.7049 270.2862 0053676 167.2237 193.0353 14.86423299538765 Delfi-N3xt 1 39428U 13066N 23313.36707949 .00008135 00000-0 11198-2 0 9998 2 39428 97.8339 233.2024 0109262 82.2626 279.0973 14.74414630533517 GOMX-1 1 39430U 13066Q 23313.67395262 .00003477 00000-0 59913-3 0 9998 2 39430 97.7581 196.2429 0142120 232.4982 126.3232 14.62692434530795 LO-74 1 39440U 13066AA 23313.39328951 .00006848 00000-0 85613-3 0 9990 2 39440 97.7878 257.6197 0071506 274.8842 84.4209 14.80821368535639 AO-73 1 39444U 13066AE 23313.83508492 .00007058 00000-0 74638-3 0 9992 2 39444 97.6906 273.3661 0052248 149.7304 210.6949 14.88480427537888 SPROUT 1 39770U 14029E 23313.81155509 .00046277 00000-0 27362-2 0 9996 2 39770 97.9998 86.3420 0005462 199.0188 161.0838 15.11292777514071 DTUSAT-2 1 40030U 14033W 23313.36716685 .00007919 00000-0 73124-3 0 9998 2 40030 97.9805 256.0088 0010697 161.0889 199.0730 14.94855000509674 EO-80 1 40032U 14033Y 23313.81034813 .00007656 00000-0 70645-3 0 9999 2 40032 97.9814 256.4757 0010702 157.9022 202.2662 14.94890897510231 HODOYOSHI-1 1 40299U 14070B 23313.75086921 .00019113 00000-0 51101-3 0 9992 2 40299 97.1764 12.8634 0010909 112.6520 247.5880 15.38047792501141 GRIFEX 1 40379U 15003D 23313.72867744 .00106898 00000-0 12434-2 0 9997 2 40379 99.0850 287.5663 0058877 121.4147 239.2880 15.59205212485908 XW-2C 1 40906U 15049H 23313.81879761 .00020872 00000-0 69365-3 0 9998 2 40906 97.4926 321.8781 0011130 20.7774 339.3917 15.31158502450646 XW-2D 1 40907U 15049J 23313.73903788 .00026881 00000-0 81065-3 0 9994 2 40907 97.4896 322.8221 0009638 15.0957 345.0572 15.34229469450750 LILACSAT-2 1 40908U 15049K 23313.84105153 .00009402 00000-0 41418-3 0 9995 2 40908 97.5282 316.7253 0014861 48.1557 312.0945 15.21944837449930 XW-2E 1 40909U 15049L 23313.80969625 .00076066 00000-0 12401-2 0 9993 2 40909 97.4423 331.2419 0004471 336.0924 24.0120 15.52344696451610 XW-2F 1 40910U 15049M 23313.81273468 .00073033 00000-0 12307-2 0 9995 2 40910 97.4523 330.5049 0005152 338.6082 21.4954 15.51424791451344 XW-2B 1 40911U 15049N 23313.82530302 .00026281 00000-0 80071-3 0 9997 2 40911 97.4873 323.2451 0009716 16.1660 343.9891 15.33908712450643 DCBB 1 40912U 15049P 23313.80500630 .00145690 00000-0 14671-2 0 9995 2 40912 97.3998 336.0968 0002824 240.2853 119.8125 15.64938284452196 IO-86 1 40931U 15052B 23313.37204677 .00001789 00000-0 15658-3 0 9991 2 40931 5.9986 129.9752 0013115 194.6952 165.2794 14.77464399438742 ChubuSat-2 1 41338U 16012B 23313.49138984 .00006598 00000-0 44171-3 0 9995 2 41338 31.0039 7.9318 0012275 186.5977 173.4499 15.05451577424282 ChubuSat-3 1 41339U 16012C 23313.57199102 .00005743 00000-0 38662-3 0 9993 2 41339 31.0103 4.8826 0012219 194.0867 165.9430 15.05172674424284 Horyu-4 1 41340U 16012D 23313.37549763 .00012917 00000-0 75497-3 0 9993 2 41340 31.0046 327.7830 0011301 256.1801 103.7580 15.10627362424677 e-st@r-II 1 41459U 16025D 23313.56994146 .00066878 00000-0 13575-2 0 9991 2 41459 98.1634 170.6874 0081604 310.1673 49.2445 15.42522910415200 Lapan A3 1 41603U 16040E 23313.79736428 .00003976 00000-0 16949-3 0 9990 2 41603 97.1574 332.6464 0013140 154.3675 205.8217 15.23413711409654 Pratham 1 41783U 16059A 23313.79678701 .00001574 00000-0 30481-3 0 9997 2 41783 97.8568 338.3708 0032826 2.0035 358.1294 14.64281122380285 CAS-2T 1 41847U 16066G 23313.18829788 .00003152 00000-0 46933-3 0 9995 2 41847 98.4898 20.9888 0358510 122.0790 241.5739 14.40315775367677 CAS-4B 1 42759U 17034B 23313.52438985 .00014109 00000-0 63705-3 0 9997 2 42759 43.0157 25.9708 0011762 324.4110 35.5954 15.20773707353733 CAS-4A 1 42761U 17034D 23313.53911576 .00014820 00000-0 66754-3 0 9990 2 42761 43.0155 24.3897 0012348 324.8629 35.1405 15.20819871353736 NIUSat 1 42766U 17036B 23313.03345113 .00061832 00000-0 10595-2 0 9996 2 42766 97.1399 341.9364 0005123 300.5641 59.5106 15.50999921354968 Aalto 1 1 42775U 17036L 23313.61626198 .00036893 00000-0 83581-3 0 9990 2 42775 97.1378 339.9990 0006323 308.0662 52.0015 15.42994555354883 URSA MAIOR 1 42776U 17036M 23313.56997248 .00045616 00000-0 91857-3 0 9990 2 42776 97.1382 341.8488 0005566 300.2281 59.8417 15.46434726354987 Max Valier Sat 1 42778U 17036P 23313.64078825 .00045145 00000-0 85727-3 0 9998 2 42778 97.1366 345.7240 0004476 296.7787 63.3006 15.48145833355153 Pegasus 1 42784U 17036V 23313.57975647 .00177454 00000-0 14396-2 0 9997 2 42784 97.1251 350.8573 0002196 245.9663 114.1371 15.70198685355580 SKCUBE 1 42789U 17036AA 23313.60087543 .02132345 52256-2 17970-2 0 9990 2 42789 97.1075 355.3563 0005416 246.8226 113.2491 16.15023400355889 VENTA 1 1 42791U 17036AC 23313.56254203 .00180814 00000-0 14267-2 0 9993 2 42791 97.1231 352.1176 0001916 242.1667 117.9402 15.70859493355646 D-SAT 1 42794U 17036AF 23313.44010144 .00006228 00000-0 47459-3 0 9993 2 42794 97.4767 298.9856 0113620 171.7530 188.5595 14.97336535347654 TechnoSat 1 42829U 17042E 23313.79066021 .00004169 00000-0 38911-3 0 9997 2 42829 97.3803 142.5827 0014421 95.4750 264.8117 14.94615891344231 AO-91 1 43017U 17073E 23313.64720440 .00012196 00000-0 81879-3 0 9997 2 43017 97.6062 192.2799 0223954 308.3663 49.7618 14.88692992322808 AO-92 1 43137U 18004AC 23313.22728580 .00131530 00000-0 13300-2 0 9999 2 43137 97.3126 35.3915 0003553 306.6280 53.4652 15.64877291324829 TianYi 2 1 43155U 18008A 23313.81732386 .00037748 00000-0 11679-2 0 9990 2 43155 97.2788 3.3561 0011791 146.0987 214.1012 15.33320128320906 Zhou Enlai 1 43156U 18008B 23313.80212204 .00043879 00000-0 12913-2 0 9996 2 43156 97.2836 3.7561 0009391 146.5298 213.6541 15.34897154320841 TianYi 6 1 43158U 18008D 23313.60656730 .00030663 00000-0 10755-2 0 9991 2 43158 97.2877 359.6524 0010067 151.5952 208.5839 15.29336416320593 S-Net D 1 43186U 18014G 23313.70551764 .00005526 00000-0 42734-3 0 9994 2 43186 97.6033 214.6701 0013731 46.5483 313.6881 15.01822074315388 S-Net B 1 43187U 18014H 23313.30725469 .00006054 00000-0 46766-3 0 9992 2 43187 97.6051 214.2118 0014346 44.6289 315.6088 15.01819577315322 S-Net A 1 43188U 18014J 23313.30710503 .00006072 00000-0 46895-3 0 9999 2 43188 97.6051 214.3082 0014251 45.1243 315.1136 15.01823201315323 S-Net C 1 43189U 18014K 23313.30984260 .00006196 00000-0 47818-3 0 9996 2 43189 97.6083 214.2105 0015417 39.1277 321.1060 15.01828246313874 CubeBel-1 1 43666U 18083E 23313.82062146 .00093115 00000-0 14513-2 0 9991 2 43666 97.3628 347.4435 0004943 318.8004 41.2876 15.53528686279674 Changshagaoxin 1 43669U 18083H 23313.80081074 .00058004 00000-0 11938-2 0 9999 2 43669 97.3648 340.9722 0004138 339.0981 21.0099 15.45745646279346 Ten-Koh 1 43677U 18084G 23313.40218516 .00004568 00000-0 43246-3 0 9992 2 43677 98.0334 96.2389 0015227 32.2811 327.9337 14.94069994273738 PO-101 1 43678U 18084H 23313.75459110 .00003015 00000-0 28758-3 0 9995 2 43678 98.0429 100.9119 0010220 46.3861 313.8204 14.94087953273997 QO-100 1 43700U 18090A 23313.69497326 .00000161 00000-0 00000+0 0 9997 2 43700 0.0115 266.2584 0001537 357.3925 60.9338 1.00272410 18382 MinXSS-2 1 43758U 18099A 23313.69076519 .00009780 00000-0 70820-3 0 9993 2 43758 97.5882 14.9364 0018297 355.9547 4.1528 15.04050917269593 AO-95 1 43770U 18099N 23313.11224921 .00009463 00000-0 72592-3 0 9992 2 43770 97.5809 10.9464 0014995 31.6109 328.6013 15.01923266269345 RANGE-B 1 43772U 18099Q 23313.12640432 .00013373 00000-0 96458-3 0 9996 2 43772 97.5573 14.0254 0005220 312.3792 47.6992 15.04241343269431 RANGE-A 1 43773U 18099R 23313.11508604 .00006947 00000-0 56424-3 0 9998 2 43773 97.5498 8.3509 0013012 5.0371 355.0981 14.99853032269277 MOVE-II 1 43780U 18099Y 23313.67362395 .00017142 00000-0 11281-2 0 9992 2 43780 97.5542 14.8276 0008233 24.4565 335.7052 15.07589602269629 SNUSat 2 1 43782U 18099AA 23313.69952438 .00007662 00000-0 59533-3 0 9998 2 43782 97.5530 11.7854 0015510 327.6019 32.4252 15.01493903269450 SnugLite 1 43784U 18099AC 23313.12304869 .00009757 00000-0 74468-3 0 9998 2 43784 97.5272 10.7805 0005601 347.1683 12.9398 15.02181559269416 ITASat 1 1 43786U 18099AE 23313.09733788 .00007312 00000-0 57315-3 0 9999 2 43786 97.5517 11.7167 0019617 15.3557 344.8259 15.01115522269372 EAGLET 1 1 43790U 18099AJ 23313.12626073 .00006471 00000-0 51799-3 0 9991 2 43790 97.5638 12.1199 0016188 7.6602 352.4866 15.00405165269100 ESEO 1 43792U 18099AL 23313.11434689 .00003978 00000-0 33814-3 0 9999 2 43792 97.5525 10.1018 0012382 7.1502 352.9895 14.98353931269084 CSIM 1 43793U 18099AM 23313.66696605 .00016733 00000-0 10926-2 0 9999 2 43793 97.5612 16.3273 0014355 355.1710 4.9377 15.07827363269470 JO-97 1 43803U 18099AX 23313.69874540 .00009273 00000-0 69187-3 0 9995 2 43803 97.5561 12.6384 0009977 344.6943 15.3979 15.03031281269535 Suomi 100 1 43804U 18099AY 23313.73166912 .00008684 00000-0 65484-3 0 9999 2 43804 97.5589 12.4603 0017326 335.0420 24.9966 15.02569991269534 CHOMPTT 1 43855U 18104G 23313.34309462 .00069752 00000-0 11764-2 0 9992 2 43855 85.0246 66.6804 0008962 129.6801 230.5248 15.51359951272980 ISAT 1 43879U 18111D 23313.71215633 .00020509 00000-0 14417-2 0 9998 2 43879 97.6306 216.2498 0015770 38.5964 321.6386 15.05023393264182 UWE-4 1 43880U 18111E 23313.66929916 .00010343 00000-0 73749-3 0 9999 2 43880 97.6232 216.6891 0019793 44.2766 316.0039 15.04592899264225 Sparrow 1 43881U 18111F 23313.54970079 .00012267 00000-0 85676-3 0 9992 2 43881 97.6382 217.6242 0012906 74.6469 285.6183 15.05416567266231 Lume 1 1 43908U 18111AJ 23313.18036851 .00118754 00000-0 12573-2 0 9996 2 43908 97.1088 195.4529 0010930 43.6090 316.6032 15.63685365271895 AISTechSat 3 1 44103U 19018AB 23313.78430642 .00065713 00000-0 10357-2 0 9997 2 44103 97.2311 12.0965 0007363 102.1138 258.0941 15.53309659257004 AISat 1 1 44104U 19018AC 23313.47081882 .00049679 00000-0 69719-3 0 9992 2 44104 97.3721 48.2501 0032953 85.8933 274.6087 15.55933251258235 Prox-1 1 44339U 19036A 23313.08741112 .00010268 00000-0 19674-2 0 9994 2 44339 23.9996 201.8119 0009373 64.4399 295.7063 14.61872163232808 Move-IIb 1 44398U 19038N 23312.24888979 .00418929 00000-0 25711-2 0 9996 2 44398 97.6653 304.6333 0013769 115.8044 244.4642 15.75994094241014 SONATE 1 44400U 19038Q 23313.49837195 .00018211 00000-0 72251-3 0 9994 2 44400 97.6997 294.6372 0019767 157.2626 202.9491 15.25242076240358 BeeSat 9 1 44412U 19038AC 23313.52376951 .00054821 00000-0 13459-2 0 9990 2 44412 97.6831 299.9958 0014931 133.7618 226.4866 15.40385323240441 JAISAT-1 1 44419U 19038F 23313.51584466 .00055869 00000-0 13670-2 0 9996 2 44419 97.6832 301.1095 0014584 130.9193 229.3318 15.40488884240820 Taurus 1 1 44530U 19059C 23313.80261532 .00007335 00000-0 18313-2 0 9995 2 44530 98.5632 64.0679 0012035 10.2718 349.8720 14.51813554219757 Duchifat 3 1 44854U 19089C 23313.64690098 .00013998 00000-0 86017-3 0 9991 2 44854 36.9606 300.1088 0005537 85.5709 274.5668 15.09456436214795 OPS-SAT 1 44878U 19092F 23313.81156730 .00039779 00000-0 87327-3 0 9990 2 44878 97.4647 145.2918 0007144 337.4845 22.6088 15.43913062216188 TO-108 1 44881U 19093C 23313.79372901 .00002045 00000-0 25802-3 0 9998 2 44881 97.8512 29.7163 0013828 327.8032 32.2336 14.82964744210375 FloripaSat 1 1 44885U 19093G 23313.74970153 .00006028 00000-0 67301-3 0 9995 2 44885 97.8599 33.3586 0012549 326.1427 33.8986 14.87306941210577 RS-44 1 44909U 19096E 23313.32746046 .00000004 00000-0 -26442-4 0 9992 2 44909 82.5210 251.4879 0216776 207.3783 151.5762 12.79723796180729 BY70-2 1 45857U 20042B 23313.83424383 .00038812 00000-0 32171-2 0 9992 2 45857 97.9157 34.8983 0008429 240.3475 119.6908 14.98675260181284 UPMSat 2 1 46276U 20061E 23313.17533164 .00015458 00000-0 58959-3 0 9998 2 46276 97.3307 17.8870 0001894 133.4516 226.6880 15.26763694176388 AmicalSat 1 46287U 20061R 23313.16303611 .00023512 00000-0 94413-3 0 9996 2 46287 97.3836 17.2363 0000933 334.7608 25.3584 15.24959618175766 SALSAT 1 46495U 20068K 23313.85218467 .00007889 00000-0 49413-3 0 9993 2 46495 97.7873 263.6823 0014628 353.6538 6.4503 15.09565755171033 CAPE 3 1 47309U 21002A 23313.27882458 .00117758 00000-0 15028-2 0 9991 2 47309 60.6701 214.7514 0021278 32.2432 327.9967 15.58329807156749 AO-109 1 47311U 21002C 23313.07062114 .00072705 00000-0 12279-2 0 9998 2 47311 60.6765 217.5453 0020829 31.1214 329.1115 15.50900685156652 ExoCube 2 1 47319U 21002L 23313.09811583 .00068187 00000-0 12076-2 0 9994 2 47319 60.6743 220.3983 0021741 30.1292 330.1053 15.49564029156575 UVSQ-SAT 1 47438U 21006AB 23313.70688403 .00029024 00000-0 98290-3 0 9991 2 47438 97.3653 9.1083 0007278 289.3674 70.6780 15.30514050154850 YUSAT 1 1 47439U 21006AC 23313.15179229 .00043519 00000-0 12688-2 0 9993 2 47439 97.3663 10.0621 0006454 284.0515 76.0011 15.35217337154863 SOMP 2b 1 47445U 21006AJ 23313.71175389 .00026316 00000-0 92130-3 0 9992 2 47445 97.3622 8.1109 0007231 296.0765 63.9731 15.29453470154810 IDEASSat 1 47458U 21006AX 23313.70312025 .00024681 00000-0 89348-3 0 9995 2 47458 97.3720 8.8964 0006633 296.2245 63.8313 15.28373368154786 CubeSX-Sirius-HSE 1 47951U 21022V 23313.78030931 .00016911 00000-0 85085-3 0 9993 2 47951 97.4797 208.9389 0016607 182.5939 177.5211 15.17169030145071 CubeSX-HSE 1 47952U 21022W 23313.54903989 .00016586 00000-0 83309-3 0 9995 2 47952 97.4793 208.7718 0016529 182.9703 177.1435 15.17234848145049 KSU-Cubesat 1 47954U 21022Y 23313.69733457 .00018583 00000-0 89737-3 0 9994 2 47954 97.4798 209.5395 0015848 179.2510 180.8750 15.18594379144829 GRBAlpha 1 47959U 21022AD 23313.79129028 .00017188 00000-0 86075-3 0 9995 2 47959 97.4800 209.1190 0016369 182.3887 177.7271 15.17334402143907 Orbicraft-Zorkiy 1 47960U 21022AE 23313.80051818 .00019072 00000-0 92634-3 0 9992 2 47960 97.4834 209.8011 0016002 180.3785 179.7439 15.18384334144622 STECCO 1 47962U 21022AG 23313.81533105 .00038710 00000-0 14013-2 0 9993 2 47962 97.4804 213.7844 0011122 152.7072 207.4754 15.28241094144219 MO-110 1 47964U 21022AJ 23313.18022810 .00042477 00000-0 14778-2 0 9994 2 47964 97.4821 213.9950 0012974 151.2239 208.9719 15.29498551144169 FEES 1 48082U 21022AL 23313.56875185 .00126201 00000-0 25347-2 0 9991 2 48082 97.4780 217.7976 0010681 120.7841 239.4461 15.46132833144157 TUBIN 1 48900U 21059X 23313.82250085 .00015100 00000-0 64709-3 0 9996 2 48900 97.6185 88.8431 0008935 131.8189 228.3812 15.22828540131319 IT-SPINS 1 49017U 21013G 23313.60071378 .00098122 00000-0 12433-2 0 9999 2 49017 51.5859 78.9220 0002132 211.0754 149.0112 15.58668531132240 LEDSAT 1 49069U 21073D 23313.50278955 .00015536 00000-0 77278-3 0 9998 2 49069 97.4680 22.0904 0021748 339.5027 20.5332 15.17501697122914 CUTE 1 49263U 21088D 23313.13584149 .00017908 00000-0 10376-2 0 9994 2 49263 97.5289 16.6103 0017640 123.7584 236.5330 15.12124149116168 TeikyoSat 4 1 49396U 21102B 23313.57379502 .00002562 00000-0 19458-3 0 9992 2 49396 97.4930 0.9822 0012871 311.8834 48.1293 15.02979938109609 Z-Sat 1 49399U 21102E 23313.78736214 .00004553 00000-0 31449-3 0 9991 2 49399 97.4669 2.3773 0019726 294.8029 65.1146 15.06084804109793 KOSEN 1 1 49402U 21102H 23313.14355680 .00007609 00000-0 49307-3 0 9997 2 49402 97.4598 2.5504 0018552 282.9861 76.9296 15.08255746109794 HO-113 1 50466U 21131B 23313.76811136 .00001172 00000-0 39261-3 0 9999 2 50466 98.5444 34.8200 0005183 72.1334 288.0419 14.39176056 98293 Tevel-3 1 50988U 22002E 23313.77212232 .00039587 00000-0 12213-2 0 9997 2 50988 97.4166 20.3361 0007019 81.9258 278.2781 15.33444813101003 Tevel-8 1 50989U 22002F 23313.79783707 .00040623 00000-0 12563-2 0 9991 2 50989 97.4183 20.4365 0007016 81.2068 278.9969 15.33361998101004 Tevel-5 1 50998U 22002Q 23313.75352363 .00042754 00000-0 12667-2 0 9999 2 50998 97.4159 20.9094 0007824 75.5651 284.6459 15.34704883101049 Tevel-6 1 50999U 22002R 23313.75244919 .00043352 00000-0 12848-2 0 9993 2 50999 97.4156 20.8987 0007823 75.4263 284.7847 15.34692347101047 Tevel-1 1 51013U 22002AF 23313.78717861 .00040238 00000-0 12440-2 0 9993 2 51013 97.4158 20.2666 0006873 81.9775 278.2247 15.33375598101002 NO-116 1 51031U 22002AZ 23313.16128098 .00141223 00000-0 23105-2 0 9999 2 51031 97.4261 25.3933 0004084 56.6246 303.5396 15.52001272101210 IRIS-A 1 51044U 22002BN 23313.72964064 .00017564 00000-0 74502-3 0 9994 2 51044 97.4183 17.1534 0008755 91.8243 268.3996 15.23138907100789 Tevel-7 1 51062U 22002CG 23313.79629850 .00042752 00000-0 13199-2 0 9993 2 51062 97.4178 20.4051 0006958 80.8891 279.3138 15.33404367101007 Tevel-4 1 51063U 22002CH 23313.74383934 .00041252 00000-0 12782-2 0 9990 2 51063 97.4176 20.3166 0006895 80.6972 279.5049 15.33298013100999 Tevel-2 1 51069U 22002CP 23313.77321260 .00039388 00000-0 12147-2 0 9995 2 51069 97.4163 20.3049 0006956 82.0934 278.1098 15.33458769101001 DELFI-PQ 1 51074U 22002CU 23313.42583652 .00191901 00000-0 22690-2 0 9992 2 51074 97.4385 29.4220 0003331 86.6186 273.5452 15.60644271101421 SO-115 1 51080U 22002DA 23313.42783385 .00062976 00000-0 16153-2 0 9990 2 51080 97.4450 25.2766 0008706 104.1769 256.0444 15.39086487101145 SO-114 1 51081U 22002DB 23312.41656470 .00064153 00000-0 16295-2 0 9999 2 51081 97.4448 24.2622 0008527 105.9415 254.2771 15.39381893100995 OreSat0 1 52017U 22026K 23313.57015283 .00033569 00000-0 10842-2 0 9993 2 52017 97.5096 317.0523 0016256 295.0397 64.9156 15.31911445 91745 Planetum 1 1 52738U 22057G 23313.31694186 .00029683 00000-0 11540-2 0 9992 2 52738 97.5504 69.8428 0006207 199.8926 160.2071 15.25978495 80744 Foresail-1 1 52766U 22057AL 23313.31679617 .00018858 00000-0 79610-3 0 9990 2 52766 97.5635 70.6188 0011152 181.1116 179.0097 15.23265245 80749 SNUGLITE 2 1 52899U 22065F 23313.35243522 .00002431 00000-0 51774-3 0 9993 2 52899 98.0891 94.3835 0008836 119.6449 240.5633 14.59829900 72033 CTIM 1 52950U 22074G 23313.20462435 .00531219 00000-0 27136-2 0 9996 2 52950 44.9979 255.2020 0014779 150.0422 210.1329 15.79034699 76164 IO-117 1 53106U 22080B 23313.26690604 -.00000003 00000-0 00000-0 0 9996 2 53106 70.1424 269.2877 0008301 157.4945 202.6080 6.42557162 31070 SelfieSat 1 53951U 22057BC 23313.31806904 .00041847 00000-0 14575-2 0 9990 2 53951 97.5542 71.1039 0007595 194.7519 165.3501 15.29518696 80809 FO-118 1 54684U 22167C 23313.81624015 .00021551 00000-0 10373-2 0 9994 2 54684 97.5802 90.9978 0012260 191.0974 168.9991 15.18723397 50749 SSS-2B 1 56184U 23054G 23313.59654801 .00024714 00000-0 91055-3 0 9999 2 56184 97.3911 206.8407 0007158 237.4742 122.5806 15.27791676 32339 CIRBE 1 56188U 23054L 23313.28531008 .00038015 00000-0 13098-2 0 9991 2 56188 97.3865 206.6683 0006005 223.0282 137.0490 15.29902995 32302 INSPIRE-Sat 7 1 56211U 23054AK 23313.50339054 .00036472 00000-0 11801-2 0 9995 2 56211 97.3886 207.5056 0010259 206.9448 153.1262 15.31912105 32376 RoseyCubesat 1 1 56212U 23054AL 23313.52020480 .00037846 00000-0 11960-2 0 9990 2 56212 97.3892 207.6523 0010354 205.4573 154.6161 15.32659595 32380 NEUDOSE 1 56315U 98067VG 23313.48186750 .00466295 95418-4 13591-2 0 9995 2 56315 51.6237 309.5546 0006111 50.8911 309.2638 15.92257960 31136 URESAT-1 1 56992U 23084BU 23313.54365210 .00022894 00000-0 11748-2 0 9994 2 56992 97.5179 68.0304 0017005 77.0932 283.2199 15.16407431 22632 MRC-100 1 56993U 23084BV 23313.27022854 .00027137 00000-0 13776-2 0 9997 2 56993 97.5178 67.7935 0016812 77.7052 282.6063 15.16753151 22606 UmKA 1 (RS40S) 1 57172U 23091G 23313.81081805 .00006166 00000-0 44063-3 0 9999 2 57172 97.6483 3.1688 0018684 147.3065 212.9321 15.04700862 20320 CubeBel-2 (EU11S) 1 57175U 23091K 23313.78662451 .00007563 00000-0 54314-3 0 9992 2 57175 97.6470 3.0399 0016931 158.3988 201.7956 15.04465423 20316 /EX
